Weather History for Apalachicola, FL

Change the Weather History Date:

Wednesday, February 13, 2013

  Actual Average Record
Temperature  
Mean Temperature 62 °F 55 °F  
Max Temperature 73 °F 66 °F 75 °F (1950)
Min Temperature 51 °F 44 °F 25 °F (1958)
Degree Days  
Heating Degree Days 3    
Month to date heating degree days 77  
Since 1 July heating degree days 698  
Cooling Degree Days 0    
Month to date cooling degree days 12  
Year to date cooling degree days 49  
Growing Degree Days 12 (Base 50)    
Moisture  
Dew Point 61 °F    
Average Humidity 70    
Maximum Humidity 93    
Minimum Humidity 47    
Precipitation  
Precipitation 0.04 in 0.14 in 1.89 in (1960)
Month to date precipitation 1.29 1.85  
Year to date precipitation 2.09 6.25  
Sea Level Pressure  
Sea Level Pressure 29.88 in    
Wind  
Wind Speed 11 mph (WNW)    
Max Wind Speed 17 mph    
Max Gust Speed 24 mph    
Visibility 8 miles    
Events Rain    
T = Trace of Precipitation, MM = Missing Value Source: NWS Daily Summary

Daily Weather History Graph

Daily Weather History Graph

Search for Another Location

Airport:

Trip Planner

Search our weather history database for the weather conditions in past years. The results will help you decide how hot, cold, wet, or windy it might be!

Date:

Astronomy

Feb. 13, 2013 Rise Set
Actual Time 7:21 AM EST 6:27 PM EST
Civil Twilight 6:56 AM EST 6:52 PM EST
Nautical Twilight 6:28 AM EST 7:20 PM EST
Astronomical Twilight 6:00 AM EST 7:48 PM EST
Moon 9:10 AM EST (2/13) 10:06 PM EST (2/13)
Length of Visible Light 11h 55m
Length of Day
11h 06m
Waxing Crescent, 13% of the Moon is Illuminated
Feb 13
Waxing Crescent
Feb 17
First Quarter
Feb 25
Full
Mar 4
Last Quarter
Mar 11
New

Hourly Weather History & Observations

Time (EST) Temp. Dew Point Humidity Pressure Visibility Wind Dir Wind Speed Gust Speed Precip Events Conditions
12:12 AM 71.6 °F 68.0 °F 88% 29.87 in 7.0 mi SW 12.7 mph 20.7 mph N/A   Overcast
12:53 AM 72.0 °F 69.1 °F 91% 29.86 in 7.0 mi SSW 15.0 mph - N/A   Overcast
1:53 AM 71.1 °F 69.1 °F 93% 29.84 in 6.0 mi SW 12.7 mph - N/A   Overcast
2:53 AM 72.0 °F 69.1 °F 91% 29.85 in 6.0 mi SW 10.4 mph - N/A   Overcast
3:53 AM 72.0 °F 69.1 °F 91% 29.83 in 6.0 mi SW 12.7 mph - N/A   Overcast
4:53 AM 72.0 °F 69.1 °F 91% 29.82 in 8.0 mi SW 13.8 mph 21.9 mph 0.01 in   Overcast
5:00 AM 71.6 °F 69.8 °F 94% 29.82 in 8.0 mi SW 13.8 mph - N/A   Overcast
5:10 AM 71.6 °F 69.8 °F 94% 29.82 in 7.0 mi SW 12.7 mph - N/A   Overcast
5:33 AM 71.6 °F 69.8 °F 94% 29.82 in 8.0 mi WSW 12.7 mph - N/A   Overcast
5:53 AM 72.0 °F 69.1 °F 91% 29.83 in 8.0 mi WSW 12.7 mph - N/A   Overcast
6:15 AM 71.6 °F 69.8 °F 94% 29.83 in 8.0 mi WSW 12.7 mph - N/A   Overcast
6:53 AM 71.6 °F 68.0 °F 88% 29.84 in 7.0 mi West 11.5 mph - N/A Rain Light Rain
7:09 AM 71.6 °F 68.0 °F 88% 29.84 in 6.0 mi West 10.4 mph - 0.00 in   Overcast
7:21 AM 71.6 °F 68.0 °F 88% 29.85 in 6.0 mi West 12.7 mph - 0.00 in Rain Light Rain
7:45 AM 71.6 °F 68.0 °F 88% 29.85 in 5.0 mi WNW 6.9 mph - 0.02 in   Overcast
7:53 AM 71.1 °F 68.0 °F 90% 29.85 in 6.0 mi WNW 9.2 mph - 0.02 in   Overcast
8:03 AM 71.6 °F 68.0 °F 88% 29.86 in 6.0 mi WNW 8.1 mph - N/A   Overcast
8:13 AM 71.6 °F 66.2 °F 83% 29.87 in 6.0 mi West 8.1 mph 18.4 mph N/A   Overcast
8:20 AM 71.6 °F 66.2 °F 83% 29.87 in 6.0 mi WNW 11.5 mph - N/A   Overcast
8:38 AM 71.6 °F 66.2 °F 83% 29.88 in 5.0 mi WNW 8.1 mph - N/A   Overcast
8:53 AM 71.1 °F 66.9 °F 87% 29.88 in 6.0 mi WNW 8.1 mph - N/A   Overcast
9:35 AM 71.6 °F 66.2 °F 83% 29.89 in 7.0 mi WNW 10.4 mph - N/A   Overcast
9:53 AM 71.1 °F 64.9 °F 81% 29.90 in 8.0 mi NW 8.1 mph - N/A   Mostly Cloudy
10:07 AM 71.6 °F 64.4 °F 78% 29.90 in 8.0 mi NW 10.4 mph - N/A   Mostly Cloudy
10:15 AM 71.6 °F 64.4 °F 78% 29.89 in 9.0 mi NNW 9.2 mph - N/A   Mostly Cloudy
10:53 AM 71.1 °F 63.0 °F 75% 29.90 in 9.0 mi WNW 9.2 mph - N/A   Mostly Cloudy
11:53 AM 71.1 °F 63.0 °F 75% 29.89 in 9.0 mi NW 12.7 mph - N/A   Overcast
12:53 PM 71.1 °F 59.0 °F 66% 29.88 in 10.0 mi WNW 10.4 mph - N/A   Overcast
1:53 PM 69.1 °F 48.9 °F 49% 29.88 in 10.0 mi West 11.5 mph - N/A   Overcast
2:53 PM 66.9 °F 46.0 °F 47% 29.89 in 10.0 mi WNW 17.3 mph 21.9 mph N/A   Overcast
3:53 PM 66.0 °F 51.1 °F 59% 29.89 in 10.0 mi WNW 8.1 mph - N/A   Overcast
4:53 PM 64.9 °F 51.1 °F 61% 29.91 in 10.0 mi WNW 6.9 mph - N/A   Overcast
5:53 PM 64.0 °F 50.0 °F 60% 29.91 in 10.0 mi West 4.6 mph - N/A   Overcast
6:53 PM 63.0 °F 46.9 °F 56% 29.92 in 10.0 mi NW 12.7 mph - N/A   Overcast
7:53 PM 62.1 °F 46.9 °F 58% 29.95 in 10.0 mi NNW 10.4 mph - N/A   Overcast
8:53 PM 60.1 °F 46.9 °F 62% 29.98 in 10.0 mi NW 13.8 mph - N/A   Overcast
9:53 PM 55.9 °F 48.0 °F 75% 29.98 in 10.0 mi NNW 9.2 mph - 0.00 in   Overcast
10:53 PM 54.0 °F 48.9 °F 83% 30.00 in 10.0 mi NW 4.6 mph - 0.00 in   Overcast
11:04 PM 53.6 °F 48.2 °F 82% 30.00 in 10.0 mi NNW 8.1 mph - N/A   Overcast
11:53 PM 51.1 °F 46.0 °F 83% 30.03 in 9.0 mi North 6.9 mph - 0.00 in Rain Rain